This is the latest recevied weather packets stored in our database for station/object N4JTC. If no packets are shown the sender has not sent any weather packets the latest 10 day(s).
| Time | Temp. | Humidity | Pressure | Rain* | Wind** | Luminosity | Snow |
|---|---|---|---|---|---|---|---|
| 1777750203 | 21.67° C | 73% | 1012.9 hPa | 0 mm | - | 303 W/m² | - |
| 1777749902 | 21.67° C | 73% | 1013.2 hPa | 0 mm | - | 1062 W/m² | - |
| 1777749603 | 21.67° C | 73% | 1013.1 hPa | 0 mm | - | 352 W/m² | - |
| 1777749303 | 21.67° C | 72% | 1013.3 hPa | 0 mm | - | 970 W/m² | - |
| 1777748703 | 21.11° C | 74% | 1013.6 hPa | 0 mm | - | 426 W/m² | - |
| 1777748403 | 21.11° C | 73% | 1013.3 hPa | 0 mm | - | 386 W/m² | - |
| 1777748103 | 20.56° C | 75% | 1013.4 hPa | 0 mm | - | 535 W/m² | - |
| 1777747803 | 21.11° C | 75% | 1013.5 hPa | 0 mm | - | 907 W/m² | - |
| 1777747503 | 21.11° C | 75% | 1013.6 hPa | 0 mm | - | 504 W/m² | - |
| 1777747203 | 20.56° C | 75% | 1013.4 hPa | 0 mm | - | 917 W/m² | - |
| 1777746902 | 20° C | 76% | 1013.4 hPa | 0 mm | - | 828 W/m² | - |
| 1777746603 | 20° C | 76% | 1013.3 hPa | 0 mm | - | 518 W/m² | - |
| 1777746303 | 20° C | 77% | 1013.6 hPa | 0 mm | - | 901 W/m² | - |
| 1777746003 | 20° C | 76% | 1013.4 hPa | 0 mm | - | 745 W/m² | - |
| 1777745703 | 20° C | 78% | 1013.5 hPa | 0 mm | - | 941 W/m² | - |
| 1777745103 | 18.89° C | 78% | 1013.8 hPa | 0 mm | - | 638 W/m² | - |
| 1777744803 | 18.89° C | 79% | 1013.6 hPa | 0 mm | - | 809 W/m² | - |
| 1777744503 | 18.33° C | 80% | 1013.4 hPa | 0 mm | - | 692 W/m² | - |
| 1777744203 | 18.33° C | 80% | 1013.6 hPa | 0 mm | - | 728 W/m² | - |
| 1777743903 | 17.78° C | 82% | 1013.8 hPa | 0 mm | - | 559 W/m² | - |
| 1777743603 | 17.78° C | 82% | 1013.8 hPa | 0 mm | - | 400 W/m² | - |
| 1777743303 | 17.78° C | 83% | 1013.9 hPa | 0 mm | - | 308 W/m² | - |
| 1777742703 | 17.22° C | 84% | 1013.8 hPa | 0 mm | - | 278 W/m² | - |
| 1777742403 | 17.22° C | 84% | 1013.8 hPa | 0 mm | - | 390 W/m² | - |
| 1777742103 | 17.22° C | 85% | 1014 hPa | 0 mm | - | 488 W/m² | - |
* Rain latest hour (hover to see other rain measurements)
** Current wind speed in m/s (hover to see current wind gust speed)